Tracking 18850 objects as of 22-Nov-2017
HD Live streaming from Space Station
objects crossing your sky now

FENGYUN 1C DEB

Track FENGYUN 1C DEB now!
10-day predictions


NORAD ID: 32440
Int'l Code: 1999-025DBC
Perigee: 821.6 km
Apogee: 1,358.5 km
Inclination: 99.2 °
Period: 106.9 minutes
Semi major axis: 7461 km
RCS: 0.0152 m2 (small)
Launch date: May 10, 1999
Source: People's Republic of China (PRC)
Launch site: Taiyaun Space Center, China (TSC)

Note: This is SATELLITE DEBRIS
aabbcc
Your satellite tracking list
Your tracking list is empty




NASA's NSSDC Master Catalog

Two Line Element Set (TLE):
1 32440U 99025DBC 17324.92283372  .00001022  00000-0  11770-2 0  9994
2 32440  99.1645   3.1113 0359816   3.2188 357.1146 13.47108407507905
Source of the keplerian elements: AFSPC